Location: Caltech
(34.1382°N, 118.1253°W)
Time: 20:21:25
(UTC-07:00)

ALOS - Visible Passes

Search period start: 29 April 2016 00:00
Search period end: 09 May 2016 00:00
Orbit: 685 x 687 km, 97.9° (Epoch: 28 April)

Date Brightness Start Highest point End Pass type
(mag) Time Alt. Az. Time Alt. Az. Time Alt. Az.
29 Apr 3.8 21:19:28 10° SSW 21:23:40 33° W 21:27:53 10° NNW visible
30 Apr 2.5 20:19:25 10° SSE 20:23:56 51° ENE 20:28:28 10° N visible
30 Apr 5.0 21:59:39 10° WSW 22:01:37 12° W 22:03:36 10° WNW visible
01 May 2.8 20:57:00 10° S 21:01:35 58° W 21:06:12 10° NNW visible
02 May 3.2 19:58:00 10° SE 20:02:02 30° ENE 20:06:05 10° N visible
02 May 4.5 21:35:50 10° SW 21:39:26 22° W 21:43:04 10° NW visible
03 May 2.2 20:34:55 10° SSE 20:39:35 79° ENE 20:44:16 10° N visible
04 May 3.6 21:12:59 10° SSW 21:17:19 38° W 21:21:41 10° NNW visible
05 May 2.7 20:13:12 10° SE 20:17:38 44° ENE 20:22:04 10° N visible
05 May 4.9 21:52:41 10° SW 21:55:15 15° W 21:57:49 10° WNW visible
06 May 2.6 20:50:37 10° S 20:55:16 68° W 20:59:55 10° NNW visible
07 May 4.2 21:29:13 10° SSW 21:33:04 25° W 21:36:57 10° NW visible
08 May 2.3 20:28:38 10° SSE 20:33:15 68° ENE 20:37:54 10° N visible
